Home   Weather   Concepción   Past weeks

Flag for Chile Past Weather in Concepción, Chile — Yesterday and Last 2 Weeks

Now
61 °F

Broken clouds.


Feels Like: 61 °F
Forecast: 54 / 63 °F
Wind: 8 mph from Northwest

Location: Concepcion Airport

Current Time: Dec 3, 2016 at 9:11:18 pm

Latest Report: Dec 3, 2016 at 8:00 pm


Visibility: N/A

Pressure: 29.95 "Hg

Humidity: 77%

Dew Point: 54 °F

Location of ConcepciónLocation

Past Weather in Concepción — Graph

°F

Concepción Temperature Yesterday

Maximum temperature yesterday: 73 °F (at 12:00 pm)
Minimum temperature yesterday: 55 °F (at 5:00 am)
Average temperature yesterday: 65 °F

High & Low Weather Summary for the Past Weeks

 TemperatureHumidityPressure
High90 °F (Nov 29, 4:00 pm)100% (Nov 21, 3:00 am)30.18 "Hg (Nov 21, 3:00 am)
Low50 °F (Nov 20, 6:00 am)26% (Nov 29, 4:00 pm)29.77 "Hg (Nov 29, 7:00 pm)
Average61 °F78%29.98 "Hg
* Reported Nov 18 8:00 pm — Dec 3 8:00 pm, Concepción, Weather by CustomWeather, © 2016

Note: Actual official high and low records may vary slightly from our data, if they occured in-between our weather recording intervals... More about our weather records

Advertising

Concepción Weather History for the Previous 24 Hours

Scroll right to see more
 ConditionsComfort  
Time TempWeatherWind HumidityBarometerVisibility
8:00 pm
Sat, Dec 3
61 °FBroken clouds.8 mph77%29.95 "HgN/A
7:00 pm63 °FPartly sunny.9 mph68%29.95 "HgN/A
6:00 pm66 °FPassing clouds.7 mph52%29.95 "HgN/A
5:00 pm68 °FPassing clouds.7 mph53%29.95 "HgN/A
4:00 pm68 °FPassing clouds.8 mph53%29.98 "HgN/A
3:00 pm68 °FPassing clouds.9 mph69%29.98 "HgN/A
2:00 pm66 °FPassing clouds.10 mph68%29.98 "HgN/A
1:00 pm66 °FPassing clouds.9 mph68%29.98 "HgN/A
12:00 pm66 °FPassing clouds.7 mph68%29.98 "HgN/A
11:00 am66 °FPassing clouds.6 mph68%29.98 "HgN/A
10:00 am63 °FPassing clouds.7 mph73%29.98 "HgN/A
9:00 am59 °FPassing clouds.5 mph82%29.95 "HgN/A
8:00 am57 °FPassing clouds.No wind82%29.95 "HgN/A
7:00 am50 °FPassing clouds.No wind94%29.95 "HgN/A
6:00 am50 °FClear.2 mph88%29.95 "Hg10 mi
5:00 am50 °FClear.No wind94%29.95 "Hg10 mi
4:00 am52 °FClear.2 mph82%29.95 "Hg10 mi
3:00 am54 °FClear.1 mph88%29.95 "Hg10 mi
2:00 am55 °FClear.1 mph88%29.98 "Hg10 mi
1:00 am59 °FClear.5 mph77%29.98 "Hg10 mi
12:00 am59 °FClear.3 mph82%29.98 "Hg10 mi
11:00 pm
Fri, Dec 2
57 °FClear.2 mph88%29.98 "Hg10 mi
10:00 pm61 °FClear.5 mph88%29.98 "Hg10 mi
9:00 pm63 °FClear.8 mph77%29.98 "Hg10 mi
Weather by CustomWeather, © 2016

See weather overviewHow to use our weather pages